North Myrtle Beach, SC

12:43 AM EST on December 14, 2017 (GMT -0500)
Grand Strand

Weather History for KCRE - April, 2014

Change the Weather History Date:

Saturday, April 26, 2014

  Actual Average Record
Temperature  
Mean Temperature 68 °F 64 °F  
Max Temperature 77 °F 74 °F 92 °F (1990)
Min Temperature 59 °F 55 °F 42 °F (2001)
Degree Days  
Heating Degree Days 0 3  
Month to date heating degree days 105 132  
Since 1 July heating degree days 2577 2414  
Cooling Degree Days 3 2  
Month to date cooling degree days 20 29  
Year to date cooling degree days 20 32  
Growing Degree Days 18 (Base 50)    
Moisture  
Dew Point 53 °F    
Average Humidity 62    
Maximum Humidity 93    
Minimum Humidity 31    
Precipitation  
Precipitation 0.00 in 0.09 in 1.16 in (2006)
Month to date precipitation 1.98 2.60  
Year to date precipitation 10.84 13.63  
Sea Level Pressure  
Sea Level Pressure 29.97 in    
Wind  
Wind Speed 9 mph (WSW)    
Max Wind Speed 15 mph    
Max Gust Speed 20 mph    
Visibility 10 miles    
Events      
T = Trace of Precipitation, MM = Missing Value Source: NWS Daily Summary

Daily Weather History Graph

Daily Weather History Graph

Search for Another Location

Airport or City:

Trip Planner

Search our weather history database for the weather conditions in past years. The results will help you decide how hot, cold, wet, or windy it might be!

Date:

Astronomy

Apr. 26, 2014 Rise Set
Actual Time 6:31 AM EDT 7:54 PM EDT
Civil Twilight 6:05 AM EDT 8:20 PM EDT
Nautical Twilight 5:33 AM EDT 8:52 PM EDT
Astronomical Twilight 5:00 AM EDT 9:25 PM EDT
Moon 4:45 AM EDT (4/26) 5:27 PM EDT (4/26)
Length of Visible Light 14h 15m
Length of Day
13h 23m
Waning Crescent, 8% of the Moon is Illuminated
Apr 26
Waning Crescent
Apr 29
New
May 6
First Quarter
May 14
Full
May 21
Last Quarter

Hourly Weather History & Observations

Time (EDT) Temp. Dew Point Humidity Pressure Visibility Wind Dir Wind Speed Gust Speed Precip Events Conditions
12:53 AM 68.0 °F 62.1 °F 81% 29.87 in 10.0 mi NW 3.5 mph - 0.00 in   Scattered Clouds
1:53 AM 63.0 °F 61.0 °F 93% 29.87 in 8.0 mi WNW 3.5 mph - N/A   Partly Cloudy
2:53 AM 62.1 °F 59.0 °F 90% 29.86 in 10.0 mi NW 3.5 mph - N/A   Clear
3:53 AM 62.1 °F 57.0 °F 84% 29.87 in 10.0 mi NW 4.6 mph - N/A   Clear
4:53 AM 63.0 °F 55.0 °F 75% 29.89 in 10.0 mi NW 4.6 mph - N/A   Clear
5:53 AM 61.0 °F 53.1 °F 75% 29.91 in 10.0 mi Variable 5.8 mph - N/A   Clear
6:53 AM 60.1 °F 51.1 °F 72% 29.94 in 10.0 mi North 5.8 mph - N/A   Clear
7:53 AM 62.1 °F 52.0 °F 70% 29.98 in 10.0 mi North 5.8 mph - N/A   Clear
8:53 AM 64.9 °F 51.1 °F 61% 30.01 in 10.0 mi NNE 11.5 mph - N/A   Clear
9:53 AM 68.0 °F 48.9 °F 50% 30.02 in 10.0 mi North 10.4 mph - N/A   Clear
10:53 AM 72.0 °F 45.0 °F 38% 30.03 in 10.0 mi NNE 10.4 mph - N/A   Clear
11:53 AM 75.0 °F 42.1 °F 31% 30.03 in 10.0 mi NE 9.2 mph - N/A   Clear
12:53 PM 73.0 °F 46.0 °F 38% 30.03 in 10.0 mi South 10.4 mph - N/A   Clear
1:53 PM 71.1 °F 50.0 °F 47% 30.01 in 10.0 mi South 11.5 mph - N/A   Clear
2:53 PM 71.1 °F 48.9 °F 45% 30.01 in 10.0 mi South 12.7 mph - N/A   Clear
3:53 PM 70.0 °F 51.1 °F 51% 30.00 in 10.0 mi South 11.5 mph - N/A   Clear
4:53 PM 70.0 °F 48.0 °F 46% 29.99 in 10.0 mi South 9.2 mph - N/A   Clear
5:53 PM 69.1 °F 51.1 °F 53% 29.99 in 10.0 mi SSW 11.5 mph - N/A   Clear
6:53 PM 66.9 °F 51.1 °F 57% 29.99 in 10.0 mi SSW 11.5 mph - N/A   Clear
7:53 PM 64.9 °F 53.1 °F 65% 29.99 in 10.0 mi SW 12.7 mph - N/A   Clear
8:53 PM 63.0 °F 55.0 °F 75% 30.00 in 10.0 mi SW 9.2 mph - N/A   Clear
9:53 PM 63.0 °F 55.0 °F 75% 30.00 in 10.0 mi SW 9.2 mph - N/A   Clear
10:53 PM 63.0 °F 57.0 °F 81% 30.00 in 10.0 mi SW 9.2 mph - N/A   Clear
11:53 PM 63.0 °F 57.0 °F 81% 29.99 in 10.0 mi SW 10.4 mph - N/A   Clear